This is the latest recevied weather packets stored in our database for station/object K5OBH. If no packets are shown the sender has not sent any weather packets the latest 10 day(s).
| Time | Temp. | Humidity | Pressure | Rain* | Wind** | Luminosity | Snow |
|---|---|---|---|---|---|---|---|
| 1777595358 | 17.78° C | 47% | 1015.1 hPa | 0 mm | - | 32 W/m² | - |
| 1777595055 | 18.33° C | 46% | 1015 hPa | 0 mm | - | 36 W/m² | - |
| 1777594752 | 18.33° C | 47% | 1015.3 hPa | 0 mm | - | 41 W/m² | - |
| 1777594448 | 18.33° C | 46% | 1015.2 hPa | 0 mm | - | 48 W/m² | - |
| 1777594143 | 18.33° C | 44% | 1014.9 hPa | 0 mm | - | 56 W/m² | - |
| 1777593840 | 18.33° C | 44% | 1015.1 hPa | 0 mm | - | 58 W/m² | - |
| 1777593537 | 18.33° C | 44% | 1015.1 hPa | 0 mm | - | 68 W/m² | - |
| 1777593230 | 18.33° C | 42% | 1015.3 hPa | 0 mm | - | 76 W/m² | - |
| 1777592930 | 18.89° C | 43% | 1015 hPa | 0 mm | - | 82 W/m² | - |
| 1777592625 | 18.89° C | 42% | 1015.1 hPa | 0 mm | - | 87 W/m² | - |
| 1777592322 | 18.89° C | 41% | 1015.1 hPa | 0 mm | - | 91 W/m² | - |
| 1777592017 | 18.89° C | 39% | 1014.9 hPa | 0 mm | - | 97 W/m² | - |
| 1777591715 | 18.89° C | 41% | 1015.1 hPa | 0 mm | - | 106 W/m² | - |
| 1777591410 | 18.89° C | 42% | 1015.2 hPa | 0 mm | - | 103 W/m² | - |
| 1777591106 | 18.89° C | 41% | 1014.8 hPa | 0 mm | - | 109 W/m² | - |
| 1777590801 | 18.89° C | 42% | 1015 hPa | 0 mm | - | 108 W/m² | - |
| 1777590498 | 18.89° C | 40% | 1014.8 hPa | 0 mm | - | 111 W/m² | - |
| 1777590194 | 18.89° C | 41% | 1014.6 hPa | 0 mm | - | 126 W/m² | - |
| 1777589891 | 19.44° C | 40% | 1014.6 hPa | 0 mm | - | 136 W/m² | - |
| 1777589587 | 19.44° C | 39% | 1014.7 hPa | 0 mm | - | 145 W/m² | - |
| 1777589285 | 19.44° C | 40% | 1014.9 hPa | 0 mm | - | 149 W/m² | - |
| 1777588983 | 19.44° C | 39% | 1014.9 hPa | 0 mm | - | 157 W/m² | - |
| 1777588678 | 19.44° C | 42% | 1014.6 hPa | 0 mm | - | 181 W/m² | - |
| 1777588374 | 19.44° C | 40% | 1014.3 hPa | 0 mm | - | 169 W/m² | - |
| 1777588070 | 20° C | 40% | 1014.6 hPa | 0 mm | - | 202 W/m² | - |
* Rain latest hour (hover to see other rain measurements)
** Current wind speed in m/s (hover to see current wind gust speed)